Flag for U.S.A. Weather past 2 weeks in Omaha, Nebraska, U.S.A.

Now
50 °F

Sunny.


Feels Like: 46 °F
Forecast: 34 / 66 °F
Wind: 13 mph from Southeast

Location: Millard Airport


UV Index: 5 (Moderate)

Visibility: 5 mi


Pressure: 30.26 "Hg

Humidity: 55%

Dew point: 35 °F

Location of OmahaLocation

Historic Weather in Omaha

°F

Omaha temperature yesterday

Maximum temperature yesterday: 54 °F (at 6:15 PM)
Minimum temperature yesterday: 32 °F (at 5:55 AM)
Average temperature yesterday: 41 °F

Past Weeks' High & Low Weather Summary

 TemperatureHumidityPressure
High82 °F (Apr 12, 5:15 PM)96% (Apr 4, 12:35 AM)30.35 "Hg (Apr 4, 12:35 AM)
Low24 °F (Apr 15, 6:15 AM)15% (Apr 10, 3:15 PM)29.49 "Hg (Apr 12, 6:15 PM)
Average48 °F56%29.93 "Hg
* Reported Apr 3 9:15 AM — Apr 18 9:55 AM, Omaha, Weather by CustomWeather, © 2014

Note: Actual official high and low records may vary slightly from our data, if they occured in-between our weather recording intervals... More about our weather records

Advertising

Historic Weather Conditions — Data for Previous 24 hours

 ConditionsComfort  
Time TempWeatherWind HumidityBarometerVisibility
9:55 AM
Apr 18
49 °FSunny.9 mph58%30.27 "Hg4 mi
9:15 AM43 °FSunny.3 mph69%30.28 "Hg4 mi
8:15 AM38 °FSunny.No wind80%30.28 "Hg5 mi
7:55 AM34 °FSunny.No wind82%30.28 "Hg7 mi
7:35 AM33 °FClear.No wind82%30.28 "Hg7 mi
7:15 AM33 °FClear.No wind83%30.28 "Hg7 mi
6:55 AM32 °FIce fog.No wind89%30.28 "Hg5 mi
6:35 AM32 °FClear.No wind85%30.26 "Hg7 mi
6:15 AM32 °FClear.No wind83%30.26 "Hg7 mi
5:55 AM33 °FClear.No wind85%30.25 "Hg7 mi
5:35 AM32 °FClear.No wind87%30.25 "Hg7 mi
5:15 AM33 °FClear.No wind87%30.25 "Hg7 mi
4:55 AM33 °FClear.No wind83%30.25 "Hg10 mi
4:15 AM33 °FClear.No wind82%30.25 "Hg10 mi
3:55 AM33 °FClear.No wind84%30.25 "Hg7 mi
3:35 AM34 °FClear.No wind79%30.25 "Hg10 mi
3:15 AM35 °FClear.No wind80%30.25 "Hg10 mi
2:55 AM35 °FClear.No wind76%30.25 "Hg10 mi
2:35 AM35 °FClear.No wind78%30.25 "Hg10 mi
2:15 AM35 °FClear.No wind73%30.26 "Hg10 mi
1:55 AM36 °FClear.No wind75%30.26 "Hg10 mi
1:35 AM36 °FClear.No wind69%30.26 "Hg10 mi
1:15 AM37 °FClear.No wind69%30.26 "Hg10 mi
12:55 AM38 °FClear.No wind66%30.26 "Hg10 mi
12:35 AM38 °FClear.No wind70%30.26 "Hg10 mi
12:15 AM38 °FClear.No wind64%30.26 "Hg10 mi
11:55 PM
Apr 17
39 °FClear.No wind62%30.26 "Hg10 mi
11:35 PM40 °FClear.No wind60%30.26 "Hg10 mi
11:15 PM40 °FClear.No wind62%30.26 "Hg10 mi
10:55 PM41 °FClear.No wind61%30.26 "Hg10 mi
10:15 PM43 °FClear.No wind51%30.26 "Hg10 mi
9:55 PM44 °FClear.No wind51%30.26 "Hg10 mi
9:15 PM46 °FClear.No wind46%30.26 "Hg10 mi
8:55 PM47 °FSunny.No wind42%30.25 "Hg10 mi
8:35 PM48 °FSunny.No wind41%30.24 "Hg10 mi
8:15 PM49 °FSunny.No wind38%30.24 "Hg10 mi
7:55 PM52 °FSunny.No wind32%30.24 "Hg10 mi
7:35 PM52 °FSunny.No wind31%30.24 "Hg10 mi
7:15 PM53 °FSunny.No wind32%30.23 "Hg10 mi
6:55 PM53 °FSunny.No wind32%30.23 "Hg10 mi
6:15 PM54 °FSunny.No wind32%30.24 "Hg10 mi
5:55 PM54 °FSunny.No wind32%30.24 "Hg10 mi
5:35 PM54 °FSunny.No wind32%30.24 "Hg10 mi
5:15 PM54 °FSunny.No wind33%30.24 "Hg10 mi
4:55 PM53 °FSunny.No wind34%30.24 "Hg10 mi
4:15 PM52 °FSunny.3 mph35%30.25 "Hg10 mi
3:55 PM51 °FSunny.No wind37%30.26 "Hg10 mi
3:35 PM51 °FSunny.No wind39%30.26 "Hg10 mi
3:15 PM50 °FSunny.No wind41%30.28 "Hg10 mi
2:55 PM49 °FSunny.3 mph42%30.28 "Hg10 mi
2:35 PM48 °FSunny.5 mph44%30.29 "Hg10 mi
2:15 PM47 °FSunny.3 mph46%30.29 "Hg10 mi
1:55 PM46 °FSunny.No wind48%30.29 "Hg10 mi
1:35 PM45 °FSunny.5 mph49%30.30 "Hg10 mi
1:15 PM45 °FSunny.7 mph51%30.30 "Hg10 mi
12:55 PM43 °FSunny.No wind52%30.31 "Hg10 mi
11:55 AM40 °FSunny.3 mph57%30.33 "Hg10 mi
11:15 AM38 °FSunny.6 mph60%30.34 "Hg10 mi
10:55 AM38 °FScattered clouds.No wind61%30.35 "Hg10 mi
10:15 AM35 °FOvercast.No wind66%30.35 "Hg10 mi
Weather by CustomWeather, © 2014

See weather overview